STARLINK-1299 (45418 NORAD) Tracking and Keplerian Element Data

This shows tracking and keplerian element data for the satellite.

Feedback or suggestion? Click here.




ElementValue
Catalog45418
NameSTARLINK-1299
Epoch Orbit1667
Epoch Day185.18301857
Epoch Year2020
RAAN122.7957
Inclination53.0028
Eccentricity0.0001349
Argument of Perigee70.6198
Mean Anonmoly289.4932
Mean Motion14.9911577
Decay Rate-4.62E-06
L11 45418U 20019BL 20185.18301857 -.00000462 00000-0 -16230-4 0 9993
L22 45418 53.0028 122.7957 0001349 70.6198 289.4932 14.99115770 16674

Live tracking and technical data element details for STARLINK-1299 (NORAD 45418). STARLINK-1299 can be tracked NOW for your location showing map with azimuth and elevation plus other details from your city location.

Track the satellite on the map from your city or location and see movement details for azimuth, elevation, latitude, longitude, range, height, and movement on the map or in text.







IsCatalogInMostPopularTable: catalog: 45418, numindb: 55
Update: records affected: 1



GetName: 45418 STARLINK-1299

Hit Count: updated at: Fri, 03 Jul 2020 17:43:09 GMT